This demonstration page uses our WeatherBlox Daily Observations layout. Learn more.

Left ArrowRight Arrow

39.12711, -84.51439

Hourly Observations for January 4, 2018

Temp ( °F °C ) Dew Point ( °F °C ) Humidity (%) Winds ( mph kmh ) Pressure ( in mb ) Visibility ( mi km ) Precip ( " mm )
12:53 am 00:53 Clear 14 -10 6 -14.4 71 71 NNW 7 11 30.17 1022 10 16 N/A
1:53 am 01:53 Cloudy 14 -10 6 -14.4 71 71 NW 10 17 30.17 1022 10 16 N/A
2:53 am 02:53 Cloudy with Light Snow 14 -10 6 -14.4 71 71 WNW 9 15 30.18 1022 7 11 N/A
3:53 am 03:53 Cloudy with Light Snow 14 -10 7 -13.9 73 73 WNW 8 13 30.19 1022 5 8 N/A
4:48 am 04:48 Cloudy 14 -10 7 -14 73 73 NW 9 15 30.18 1022 10 16 N/A
4:53 am 04:53 Cloudy 13 -10.6 6 -14.4 74 74 NW 8 13 30.18 1022 10 16 N/A
5:13 am 05:13 Cloudy 13 -10.6 6 -14.4 74 74 NNW 7 11 30.18 1022 10 16 N/A
5:28 am 05:28 Cloudy 13 -10.6 5 -15 70 70 NW 6 9 30.18 1022 10 16 N/A
5:53 am 05:53 Cloudy with Light Snow 12 -11.1 5 -15 73 73 NW 8 13 30.19 1022 10 16 N/A
6:04 am 06:04 Cloudy 12 -11.1 5 -15 73 73 WNW 9 15 30.21 1023 10 16 N/A
6:53 am 06:53 Cloudy 11 -11.7 4 -15.6 73 73 WNW 7 11 30.20 1023 10 16 N/A
7:00 am 07:00 Cloudy 11 -11.7 5 -15 77 77 WNW 7 11 30.21 1023 9 14 N/A
7:53 am 07:53 Cloudy with Mist and Fog 11 -11.7 5 -15 77 77 VRB 5 7 30.21 1023 6 10 N/A
8:53 am 08:53 Cloudy with Mist and Fog 12 -11.1 5 -15 73 73 VRB 3 6 30.22 1024 9 14 N/A
9:53 am 09:53 Cloudy with Mist and Fog 13 -10.6 5 -15 70 70 WNW 8 13 30.24 1024 9 14 N/A
10:53 am 10:53 Cloudy with Mist and Fog 15 -9.4 6 -14.4 67 67 WNW 6 9 30.25 1024 10 16 N/A
11:53 am 11:53 Cloudy 17 -8.3 8 -13.3 68 68 NW 7 11 30.25 1024 9 14 N/A
12:53 pm 12:53 Cloudy 19 -7.2 8 -13.3 62 62 WNW 8 13 30.23 1024 10 16 N/A
1:53 pm 13:53 Mostly Cloudy 19 -7.2 5 -15 54 54 NW 13 20 30.22 1023 10 16 N/A
2:53 pm 14:53 Mostly Cloudy 21 -6.1 5 -15 50 50 NNW 12 19 30.23 1024 10 16 N/A
3:53 pm 15:53 Mostly Cloudy 19 -7.2 5 -15 54 54 NW 12 19 30.24 1024 10 16 N/A
4:53 pm 16:53 Mostly Cloudy 19 -7.2 5 -15 54 54 NW 8 13 30.25 1024 10 16 N/A
5:53 pm 17:53 Partly Cloudy 17 -8.3 6 -14.4 62 62 W 13 20 30.26 1025 10 16 N/A
6:53 pm 18:53 Clear 15 -9.4 5 -15 64 64 W 9 15 30.28 1026 10 16 N/A
7:53 pm 19:53 Clear 14 -10 4 -15.6 64 64 W 14 22 30.29 1026 10 16 N/A
8:53 pm 20:53 Partly Cloudy 12 -11.1 2 -16.7 64 64 W 10 17 30.30 1026 10 16 N/A
9:53 pm 21:53 Partly Cloudy 11 -11.7 1 -17.2 64 64 WNW 9 15 30.30 1026 10 16 N/A
10:53 pm 22:53 Clear 9 -12.8 N/A 66 66 W 9 15 30.32 1027 10 16 N/A
11:53 pm 23:53 Clear 8 -13.3 -1 -18.3 66 66 NW 7 11 30.32 1027 10 16 N/A

Powered by AerisWeather